Weather in Hulín

Czech Republic     49°18′52″N   17°28′14″E
temp.,
°C
wind,
m/s
gust,
m/s
humid.,
%
clouds,
%
prec.,
mm/h
press.,
hPa
HPBL,
m
14 april, wed
wed1423:00+1n61392100 0.9 1024986
02:00+1n51189100 1.4 1024846
05:00+1nnw4899100 0.9 1023270
08:00+1nnw48100100 2.4 1024257
11:00+4n71174100 0.4 10231368
14:00+5nne71073100 0.9 10231224
17:00+6n5965100 0.5 10221353
20:00+3n3782100 0.8 1023224
15 april, thu
thu1523:00+2n3796100 0.2 1024415
02:00+2nw3697100 0.4 1023438
05:00+1nnw2496100 0.0 1023169
08:00+2n2394100 0.1 1023317
11:00+3nnw3581100 0.4 1023798
14:00+4nnw5780100 0.8 1023862
17:00+4nnw5779100 0.3 1022832
20:00+2nw4986100 0.4 1022519
16 april, fri
fri1623:00+1nw379075 0.0 1022305
02:00+1nw369194 0.0 1022526
05:000wnw2592100 0.0 1022240
08:00+1nw2386100 0.1 1022594
11:00+4nw2277100 0.0 1022743
14:00+5n3378100 0.1 1022740
17:00+5nnw338499 0.0 1022559
20:00+4nnw239288 0.1 1022162
17 april, sat
sat1723:00+3nw2393100 0.0 1022172
02:00+3nw1292100 0.1 1022141
05:00+3n1494100 0.0 1021452
08:00+3n2698100 0.1 1022673
11:00+4n2696100 0.1 1021556
14:00+5n2695100 0.1 1021516
17:00+5nne2893100 0.0 1020643
20:00+4n2897100 0.1 1020554
18 april, sun
sun1823:00+5nne379299 0.0 1020446
02:00+5n389898 0.0 1019288
05:00+5n3897100 0.0 1018343
08:00+6n4893100 0.1 1019434
11:00+8nne5686100 0.1 1019632
14:00+10nne4569100 0.1 10181089
17:00+9nne4671100 0.0 1018795
20:00+6n338899 0.0 101863